Tracking 19969 objects as of 13-Nov-2019
Live streaming from Space Station
objects crossing your sky now
Track the group of recently launched Starlink satellites

IRIDIUM 47 DEB

Track IRIDIUM 47 DEB now!
10-day predictions


NORAD ID: 40254
Int'l Code: 1997-082P
Perigee: 763.6 km
Apogee: 1,046.6 km
Inclination: 86.0 °
Period: 102.9 minutes
Semi major axis: 7276 km
RCS: Unknown
Launch date: December 20, 1997
Source: United States (US)
Launch site: AIR FORCE WESTERN TEST RANGE (AFWTR)

Note: This is SATELLITE DEBRIS
aabbcc
Your satellite tracking list
Your tracking list is empty




NASA's NSSDC Master Catalog

Two Line Element Set (TLE):
1 40254U 97082P   19317.01150272  .00000829  00000-0  47932-3 0  9997
2 40254  86.0339 221.1458 0194499 206.6332 152.4753 13.98798219264968
Source of the keplerian elements: AFSPC